TimeCST,TemperatureF,Dew PointF,Humidity,Sea Level PressureIn,VisibilityMPH,Wind Direction,Wind SpeedMPH,Gust SpeedMPH,PrecipitationIn,Events,Conditions,WindDirDegrees,DateUTC
12:15 AM,39.2,33.8,81,29.86,10.0,SE,19.6,24.2,N/A,,Clear,140,2012-11-08 06:15:00
12:35 AM,39.2,33.8,81,29.86,10.0,SE,18.4,-,N/A,,Clear,140,2012-11-08 06:35:00
12:54 AM,39.2,33.8,81,29.85,10.0,SE,19.6,-,N/A,,Clear,130,2012-11-08 06:54:00
1:14 AM,39.2,33.8,81,29.84,10.0,SE,21.9,-,N/A,,Clear,140,2012-11-08 07:14:00
1:34 AM,39.2,33.8,81,29.84,10.0,SE,19.6,-,N/A,,Clear,140,2012-11-08 07:34:00
1:54 AM,39.2,32.0,75,29.85,10.0,SE,16.1,-,N/A,,Clear,140,2012-11-08 07:54:00
2:34 AM,37.4,33.8,87,29.84,10.0,SE,18.4,-,N/A,,Clear,140,2012-11-08 08:34:00
2:54 AM,37.4,32.0,81,29.83,10.0,SE,17.3,21.9,N/A,,Clear,130,2012-11-08 08:54:00
3:14 AM,37.4,32.0,81,29.82,10.0,SE,17.3,-,N/A,,Clear,140,2012-11-08 09:14:00
3:34 AM,37.4,32.0,81,29.82,10.0,SE,16.1,24.2,N/A,,Clear,140,2012-11-08 09:34:00
3:54 AM,37.4,32.0,81,29.85,10.0,SE,9.2,-,N/A,,Clear,130,2012-11-08 09:54:00
4:14 AM,35.6,32.0,87,29.85,10.0,SE,10.4,-,N/A,,Clear,140,2012-11-08 10:14:00
4:34 AM,35.6,32.0,87,29.84,10.0,SE,10.4,-,N/A,,Clear,130,2012-11-08 10:34:00
4:54 AM,35.6,30.2,81,29.84,10.0,SE,10.4,-,N/A,,Clear,130,2012-11-08 10:54:00
5:14 AM,33.8,30.2,87,29.85,10.0,SE,9.2,-,N/A,,Clear,130,2012-11-08 11:14:00
5:34 AM,33.8,30.2,87,29.86,10.0,SE,10.4,-,N/A,,Clear,130,2012-11-08 11:34:00
5:54 AM,33.8,30.2,87,29.86,10.0,SE,9.2,-,N/A,,Clear,130,2012-11-08 11:54:00
6:14 AM,33.8,30.2,87,29.86,10.0,SE,9.2,-,N/A,,Clear,130,2012-11-08 12:14:00
6:34 AM,33.8,30.2,87,29.86,10.0,SE,8.1,-,N/A,,Clear,130,2012-11-08 12:34:00
6:54 AM,33.8,30.2,87,29.87,10.0,SE,6.9,-,N/A,,Clear,140,2012-11-08 12:54:00
7:14 AM,33.8,30.2,87,29.87,10.0,SE,8.1,-,N/A,,Clear,130,2012-11-08 13:14:00
7:34 AM,33.8,30.2,87,29.88,10.0,SE,4.6,-,N/A,,Clear,140,2012-11-08 13:34:00
7:54 AM,33.8,32.0,93,29.88,10.0,SE,6.9,-,N/A,,Clear,130,2012-11-08 13:54:00
8:14 AM,35.6,32.0,87,29.91,10.0,Calm,Calm,-,N/A,,Clear,0,2012-11-08 14:14:00
8:35 AM,35.6,33.8,93,29.91,10.0,Calm,Calm,-,N/A,,Clear,0,2012-11-08 14:35:00
8:55 AM,37.4,33.8,87,29.92,10.0,SSW,3.5,-,N/A,,Clear,210,2012-11-08 14:55:00
9:14 AM,39.2,35.6,87,29.92,10.0,SW,4.6,-,N/A,,Clear,220,2012-11-08 15:14:00
9:35 AM,41.0,35.6,81,29.92,10.0,WSW,4.6,-,N/A,,Clear,250,2012-11-08 15:35:00
9:54 AM,42.8,35.6,76,29.93,10.0,West,5.8,-,N/A,,Clear,260,2012-11-08 15:54:00
10:14 AM,42.8,35.6,76,29.93,10.0,West,9.2,-,N/A,,Clear,270,2012-11-08 16:14:00
10:34 AM,42.8,35.6,76,29.94,10.0,NW,10.4,-,N/A,,Clear,310,2012-11-08 16:34:00
10:54 AM,42.8,35.6,76,29.95,10.0,NW,12.7,18.4,N/A,,Clear,320,2012-11-08 16:54:00
11:15 AM,48.2,37.4,66,29.96,10.0,NW,19.6,25.3,N/A,,Clear,320,2012-11-08 17:15:00
11:35 AM,48.2,37.4,66,29.95,10.0,NNW,17.3,24.2,N/A,,Clear,330,2012-11-08 17:35:00
11:54 AM,48.2,39.2,71,29.96,10.0,NNW,20.7,27.6,N/A,,Scattered Clouds,330,2012-11-08 17:54:00
12:14 PM,44.6,37.4,76,29.96,10.0,NNW,15.0,28.8,N/A,,Mostly Cloudy,340,2012-11-08 18:14:00
12:54 PM,44.6,37.4,76,29.98,10.0,NNW,18.4,24.2,N/A,,Overcast,340,2012-11-08 18:54:00
1:15 PM,42.8,37.4,81,29.98,10.0,NNW,23.0,28.8,N/A,,Overcast,330,2012-11-08 19:15:00
1:34 PM,42.8,37.4,81,29.98,10.0,NNW,18.4,25.3,N/A,,Overcast,330,2012-11-08 19:34:00
1:54 PM,42.8,37.4,81,29.99,10.0,NNW,17.3,23.0,N/A,,Overcast,330,2012-11-08 19:54:00
2:14 PM,42.8,35.6,76,30.00,10.0,NNW,18.4,27.6,N/A,,Overcast,340,2012-11-08 20:14:00
2:34 PM,41.0,35.6,81,30.01,10.0,North,19.6,25.3,N/A,,Overcast,360,2012-11-08 20:34:00
2:55 PM,41.0,35.6,81,30.02,10.0,North,15.0,23.0,N/A,,Overcast,350,2012-11-08 20:55:00
3:14 PM,41.0,35.6,81,30.02,10.0,North,17.3,21.9,N/A,,Overcast,350,2012-11-08 21:14:00
3:35 PM,41.0,35.6,81,30.03,10.0,NNW,17.3,24.2,N/A,,Overcast,340,2012-11-08 21:35:00
3:54 PM,42.8,35.6,76,30.03,10.0,NNW,13.8,18.4,N/A,,Mostly Cloudy,340,2012-11-08 21:54:00
4:15 PM,42.8,35.6,76,30.03,10.0,North,15.0,18.4,N/A,,Overcast,350,2012-11-08 22:15:00
4:34 PM,41.0,35.6,81,30.04,10.0,NNW,16.1,19.6,N/A,,Overcast,340,2012-11-08 22:34:00
4:54 PM,39.2,35.6,87,30.05,10.0,North,17.3,21.9,N/A,,Overcast,350,2012-11-08 22:54:00
5:14 PM,39.2,33.8,81,30.05,10.0,North,13.8,-,N/A,,Overcast,350,2012-11-08 23:14:00
5:35 PM,39.2,33.8,81,30.06,10.0,North,12.7,-,N/A,,Overcast,350,2012-11-08 23:35:00
5:55 PM,39.2,33.8,81,30.06,10.0,NNW,12.7,-,N/A,,Overcast,340,2012-11-08 23:55:00
6:14 PM,39.2,33.8,81,30.07,10.0,North,13.8,-,N/A,,Overcast,350,2012-11-09 00:14:00
6:35 PM,39.2,33.8,81,30.06,10.0,NNW,12.7,-,N/A,,Overcast,340,2012-11-09 00:35:00
6:54 PM,39.2,33.8,81,30.07,10.0,North,10.4,17.3,N/A,,Overcast,350,2012-11-09 00:54:00
7:15 PM,37.4,33.8,87,30.06,10.0,North,11.5,-,N/A,,Overcast,350,2012-11-09 01:15:00
7:34 PM,37.4,33.8,87,30.07,10.0,North,9.2,-,N/A,,Overcast,350,2012-11-09 01:34:00
7:55 PM,37.4,33.8,87,30.07,10.0,North,10.4,-,N/A,,Overcast,350,2012-11-09 01:55:00
8:14 PM,37.4,33.8,87,30.08,10.0,North,9.2,-,N/A,,Overcast,350,2012-11-09 02:14:00
8:35 PM,37.4,33.8,87,30.08,10.0,North,8.1,-,N/A,,Overcast,350,2012-11-09 02:35:00
8:55 PM,37.4,33.8,87,30.07,10.0,North,9.2,-,N/A,,Overcast,350,2012-11-09 02:55:00
9:15 PM,37.4,33.8,87,30.08,10.0,North,9.2,-,N/A,,Overcast,350,2012-11-09 03:15:00
9:35 PM,37.4,33.8,87,30.08,10.0,North,8.1,-,N/A,,Overcast,350,2012-11-09 03:35:00
9:55 PM,37.4,33.8,87,30.07,10.0,North,9.2,-,N/A,,Overcast,360,2012-11-09 03:55:00
10:14 PM,37.4,33.8,87,30.07,10.0,North,6.9,-,N/A,,Overcast,350,2012-11-09 04:14:00
10:34 PM,37.4,33.8,87,30.08,10.0,NNW,8.1,-,N/A,,Overcast,340,2012-11-09 04:34:00
10:55 PM,37.4,33.8,87,30.08,10.0,NNW,10.4,-,N/A,,Overcast,340,2012-11-09 04:55:00
11:15 PM,37.4,33.8,87,30.09,10.0,North,10.4,-,N/A,,Overcast,350,2012-11-09 05:15:00
11:35 PM,35.6,33.8,93,30.09,10.0,North,9.2,-,N/A,,Overcast,350,2012-11-09 05:35:00
11:55 PM,35.6,33.8,93,30.09,10.0,NNW,9.2,-,N/A,,Overcast,340,2012-11-09 05:55:00